This demonstration page uses our WeatherBlox Daily Observations layout. Learn more.

Left ArrowRight Arrow

39.51506, -84.39828

Hourly Observations for September 14, 2016

Temp ( °F °C ) Dew Point ( °F °C ) Humidity (%) Winds ( mph kmh ) Pressure ( in mb ) Visibility ( mi km ) Precip ( " mm )
12:15 am 00:15 Clear 62 16.6 56 13.6 83 83 N N/A 30.15 1021 10 16 N/A
12:35 am 00:35 Clear 61 16.1 56 13.2 83 83 N N/A 30.15 1021 10 16 N/A
12:55 am 00:55 Clear 61 16.3 56 13.5 84 84 N N/A 30.15 1021 10 16 N/A
1:15 am 01:15 Clear 61 16.3 56 13.5 84 84 N N/A 30.15 1021 10 16 N/A
1:35 am 01:35 Clear 61 16 56 13.2 84 84 N N/A 30.15 1021 10 16 N/A
1:55 am 01:55 Hazy 61 16 56 13.2 84 84 N N/A 30.15 1021 5 8 N/A
2:15 am 02:15 Hazy 61 16 56 13.3 84 84 N N/A 30.15 1021 5 8 N/A
2:35 am 02:35 Clear 61 16 56 13.3 84 84 N N/A 30.15 1021 10 16 N/A
2:55 am 02:55 Clear 60 15.7 56 13.1 85 85 N N/A 30.15 1021 10 16 N/A
3:15 am 03:15 Clear 60 15.3 55 12.6 84 84 N N/A 30.15 1021 7 11 N/A
3:35 am 03:35 Mostly Cloudy with Haze 60 15.3 55 12.7 85 85 N N/A 30.15 1021 1 1 N/A
3:55 am 03:55 Hazy 60 15.3 55 12.7 85 85 N N/A 30.15 1021 4 6 N/A
4:15 am 04:15 Hazy 60 15.3 55 12.7 85 85 N N/A 30.15 1021 3 5 N/A
4:35 am 04:35 Clear 60 15.3 55 12.7 85 85 N N/A 30.15 1021 10 16 N/A
4:55 am 04:55 Clear 60 15.3 55 12.7 85 85 N N/A 30.15 1021 10 16 N/A
5:15 am 05:15 Clear 60 15.3 55 12.7 85 85 N N/A 30.18 1022 7 11 N/A
5:35 am 05:35 Hazy 60 15.3 55 12.7 85 85 N N/A 30.18 1022 4 6 N/A
5:55 am 05:55 Clear 60 15.3 55 12.7 85 85 N N/A 30.18 1022 7 11 N/A
6:15 am 06:15 Clear 60 15.3 55 12.7 85 85 N N/A 30.18 1022 7 11 N/A
6:35 am 06:35 Hazy 60 15.3 55 12.7 85 85 N N/A 30.18 1022 5 8 N/A
6:55 am 06:55 Hazy 60 15.3 55 12.7 85 85 N N/A 30.18 1022 5 8 N/A
7:15 am 07:15 Hazy 60 15.3 55 12.7 85 85 N N/A 30.18 1022 5 8 N/A
7:35 am 07:35 Hazy 60 15.3 55 12.7 85 85 N N/A 30.18 1022 3 4 N/A
7:55 am 07:55 Hazy 60 15.3 55 12.8 85 85 N N/A 30.18 1022 4 6 N/A
8:15 am 08:15 Sunny 61 16 56 13.4 85 85 N N/A 30.18 1022 7 11 N/A
8:35 am 08:35 Sunny 63 17 58 14.5 85 85 N N/A 30.21 1023 10 16 N/A
8:55 am 08:55 Sunny 66 19 61 15.9 82 82 N N/A 30.18 1022 10 16 N/A
9:15 am 09:15 Sunny 69 20.8 63 17.1 79 79 SSW 3 6 30.18 1022 10 16 N/A
9:35 am 09:35 Sunny 69 20.8 61 16.1 75 75 SW 3 6 30.18 1022 10 16 N/A
9:55 am 09:55 Sunny 71 21.7 62 16.7 73 73 SSW 6 9 30.18 1022 10 16 N/A
10:15 am 10:15 Sunny 74 23.6 63 17.1 67 67 SSW 6 9 30.18 1022 10 16 N/A
10:35 am 10:35 Sunny 74 23.6 62 16.6 65 65 S 5 7 30.18 1022 10 16 N/A
10:55 am 10:55 Partly Cloudy 74 23.6 61 16.2 63 63 N N/A 30.18 1022 10 16 N/A
11:15 am 11:15 Partly Cloudy 77 25.1 64 17.5 63 63 SSW 3 6 30.18 1022 10 16 N/A
11:35 am 11:35 Sunny 80 26.5 65 18.2 60 60 SSE 3 6 30.18 1022 10 16 N/A
11:55 am 11:55 Sunny 80 26.5 64 17.8 59 59 SSW 5 7 30.18 1022 10 16 N/A
12:15 pm 12:15 Sunny 80 26.5 63 17.1 56 56 N N/A 30.18 1022 10 16 N/A
12:35 pm 12:35 Sunny 80 26.6 63 17.1 56 56 N N/A 30.18 1022 10 16 N/A
12:55 pm 12:55 Mostly Cloudy 81 27.4 64 17.8 56 56 N N/A 30.15 1021 10 16 N/A
1:15 pm 13:15 Cloudy with Heavy Rain 79 26 65 18.4 63 63 NW 13 20 30.18 1022 5 8 N/A
1:35 pm 13:35 Mostly Cloudy 74 23.6 66 19.1 76 76 N N/A 30.18 1022 7 11 N/A
1:55 pm 13:55 Mostly Cloudy 76 24.5 68 20 76 76 N N/A 30.18 1022 10 16 N/A
2:15 pm 14:15 Partly Cloudy 77 25.1 67 19.4 71 71 NE 3 6 30.15 1021 10 16 N/A
2:35 pm 14:35 Sunny 80 26.5 68 20 68 68 N N/A 30.15 1021 10 16 N/A
2:55 pm 14:55 Partly Cloudy 80 26.5 68 20.1 68 68 NNE 3 6 30.15 1021 10 16 N/A
3:15 pm 15:15 Partly Cloudy 81 27.2 67 19.4 62 62 N N/A 30.12 1020 10 16 N/A
3:35 pm 15:35 Sunny 81 27.1 66 18.8 61 61 N 5 7 30.12 1020 10 16 N/A
3:55 pm 15:55 Sunny 82 27.6 65 18.1 56 56 NNE 3 6 30.12 1020 10 16 N/A
4:15 pm 16:15 Partly Cloudy 82 27.7 66 18.7 58 58 N 3 6 30.12 1020 10 16 N/A
4:35 pm 16:35 Partly Cloudy 82 28 63 17.2 52 52 N 7 11 30.12 1020 10 16 N/A
4:55 pm 16:55 Partly Cloudy 82 28 64 17.5 53 53 N 6 9 30.12 1020 10 16 N/A
5:15 pm 17:15 Partly Cloudy 82 28 62 16.9 51 51 N 6 9 30.12 1020 10 16 N/A
5:35 pm 17:35 Partly Cloudy 82 28 63 17.3 52 52 ENE 3 6 30.12 1020 10 16 N/A
5:55 pm 17:55 Sunny 82 28 62 16.4 49 49 N 7 11 30.12 1020 10 16 N/A
6:15 pm 18:15 Sunny 81 27.2 63 17.2 54 54 N 8 13 30.12 1020 10 16 N/A
6:35 pm 18:35 Sunny 81 27.2 64 17.7 56 56 NNE 5 7 30.12 1020 10 16 N/A
6:55 pm 18:55 Sunny 80 26.5 64 17.5 58 58 N 3 6 30.12 1020 10 16 N/A
7:15 pm 19:15 Sunny 79 26.1 64 17.9 61 61 N 5 7 30.12 1020 10 16 N/A
7:35 pm 19:35 Partly Cloudy 77 25.1 63 17.3 62 62 N 8 13 30.12 1020 10 16 N/A
7:55 pm 19:55 Partly Cloudy 75 23.7 63 17.3 67 67 N 10 17 30.12 1020 10 16 N/A
8:15 pm 20:15 Clear 74 23.6 64 18 71 71 N 8 13 30.15 1021 10 16 N/A
8:35 pm 20:35 Clear 74 23.6 65 18.4 73 73 N 8 13 30.15 1021 10 16 N/A
8:55 pm 20:55 Clear 73 22.9 65 18.2 75 75 N 8 13 30.15 1021 10 16 N/A
9:15 pm 21:15 Clear 71 21.6 63 17.3 77 77 N 9 15 30.18 1022 10 16 N/A
9:35 pm 21:35 Partly Cloudy 69 20.8 62 16.6 77 77 N 7 11 30.18 1022 10 16 N/A
9:55 pm 21:55 Mostly Cloudy 71 21.6 63 17 75 75 NNE 9 15 30.18 1022 10 16 N/A
10:15 pm 22:15 Cloudy 71 21.6 62 16.9 75 75 NNE 7 11 30.18 1022 10 16 N/A
10:35 pm 22:35 Partly Cloudy 69 20.8 61 16.1 75 75 NNE 7 11 30.18 1022 10 16 N/A
10:55 pm 22:55 Clear 69 20.8 61 16.2 75 75 NNE 7 11 30.18 1022 10 16 N/A
11:15 pm 23:15 Clear 69 20.8 61 16.3 76 76 NNE 8 13 30.18 1022 10 16 N/A
11:35 pm 23:35 Clear 69 20.8 61 16.1 75 75 NNE 7 11 30.18 1022 10 16 N/A
11:55 pm 23:55 Clear 69 20.8 61 16.3 76 76 N 3 6 30.18 1022 10 16 N/A

Powered by AerisWeather